Location: Windsor
(43.2292°N, 89.3015°W)
Time: 15:09:51
(UTC+00:00)

MOZHAYETS 4 - Pass Details

Date: 07 July 2022
Orbit: 660 x 678 km, 98.2° (Epoch: 19 August)

Event Time Altitude Azimuth Distance (km) Brightness Sun altitude
Exits shadow 09:12:07 15° 217° (SW) 1,783 9.2 -11.1°
Maximum altitude 09:14:55 26° 265° (W) 1,324 8.8 -10.7°
Drops below altitude 10° 09:18:45 10° 322° (NW) 2,107 10.4 -10.2°
Sets 09:21:19 0° 335° (NNW) 3,022 11.4 -9.9°
